RA727 UUML-UUEE

Flight info

Callsign RA727
Flight time 0h 33m
Altitude 3000
Route K0293F060 DCT GEKLA DCT RUGEL DCT BESTA DCT SORET DCT RIMDE DCT KN DCT EE043 DCT EE044 DCT AGMER DCT EE045 DCT TAFAZ DCT KEZVU DCT
Aircraft DA62/L-SDFGRY/C

Departure

Time 2026-04-30 11:18
Airport Severka Airfield (UUML)

Arrival

Time 2026-04-30 11:51
Airport Sheremetyevo International Airport (UUEE)
Time Latitude Longitude Altitude Speed Heading
2026-04-30 10:49 55.20746 38.67434 426 ft 0 kts 180°
2026-04-30 11:12 55.20744 38.67435 426 ft 3 kts 174°
2026-04-30 11:12 55.20734 38.67470 422 ft 3 kts 106°
2026-04-30 11:12 55.20718 38.67481 426 ft 2 kts 179°
2026-04-30 11:13 55.20675 38.67492 418 ft 9 kts 168°
2026-04-30 11:13 55.20638 38.67505 423 ft 0 kts 168°
2026-04-30 11:13 55.20604 38.67519 426 ft 7 kts 167°
2026-04-30 11:14 55.20560 38.67537 423 ft 0 kts 166°
2026-04-30 11:15 55.20539 38.67542 422 ft 5 kts 182°
2026-04-30 11:15 55.20512 38.67505 427 ft 2 kts 169°
2026-04-30 11:15 55.20511 38.67531 422 ft 3 kts 55°
2026-04-30 11:16 55.20653 38.67899 423 ft 72 kts 59°
2026-04-30 11:16 55.20959 38.68888 630 ft 102 kts 58°
2026-04-30 11:16 55.21414 38.70218 482 ft 147 kts 56°
2026-04-30 11:16 55.21922 38.71639 411 ft 271 kts 56°
2026-04-30 11:17 55.22213 38.72298 488 ft 82 kts 39°
2026-04-30 11:17 55.22488 38.72658 802 ft 5 kts 32°
2026-04-30 11:17 55.23365 38.73614 895 ft 163 kts 30°
2026-04-30 11:17 55.24256 38.74522 887 ft 189 kts 28°
2026-04-30 11:18 55.25253 38.75376 1971 ft 133 kts
2026-04-30 11:18 55.26713 38.74438 2999 ft 132 kts 317°
2026-04-30 11:18 55.27254 38.72976 3009 ft 155 kts 290°
2026-04-30 11:19 55.27281 38.71003 3010 ft 172 kts 259°
2026-04-30 11:19 55.26919 38.68973 3013 ft 176 kts 256°
2026-04-30 11:19 55.26557 38.66901 3013 ft 178 kts 257°
2026-04-30 11:19 55.26200 38.64809 3012 ft 181 kts 257°
2026-04-30 11:20 55.25843 38.62689 3007 ft 181 kts 257°
2026-04-30 11:20 55.25486 38.60570 3010 ft 182 kts 256°
2026-04-30 11:20 55.25126 38.58437 3009 ft 182 kts 257°
2026-04-30 11:20 55.24767 38.56310 3010 ft 182 kts 257°
2026-04-30 11:21 55.24405 38.54170 3005 ft 184 kts 257°
2026-04-30 11:21 55.24042 38.52028 3007 ft 183 kts 257°
2026-04-30 11:21 55.23678 38.49882 3005 ft 184 kts 257°
2026-04-30 11:21 55.23316 38.47751 2998 ft 175 kts 257°
2026-04-30 11:22 55.23015 38.46023 2994 ft 133 kts 258°
2026-04-30 11:22 55.22753 38.44460 2994 ft 135 kts 258°
2026-04-30 11:22 55.22485 38.42869 3000 ft 137 kts 257°
2026-04-30 11:22 55.22215 38.41263 3001 ft 137 kts 260°
2026-04-30 11:23 55.22216 38.39623 3000 ft 134 kts 286°
2026-04-30 11:23 55.22602 38.38153 3003 ft 134 kts 308°
2026-04-30 11:23 55.23987 38.35843 2995 ft 116 kts 317°
2026-04-30 11:24 55.24543 38.34956 3001 ft 104 kts 318°
2026-04-30 11:24 55.25111 38.34036 3018 ft 127 kts 318°
2026-04-30 11:24 55.25835 38.32868 3029 ft 152 kts 317°
2026-04-30 11:25 55.27347 38.30425 3010 ft 135 kts 317°
2026-04-30 11:25 55.28010 38.29354 3007 ft 126 kts 318°
2026-04-30 11:25 55.29291 38.27283 3015 ft 130 kts 318°
2026-04-30 11:26 55.30655 38.25074 3011 ft 134 kts 318°
2026-04-30 11:26 55.31344 38.23958 3018 ft 135 kts 318°
2026-04-30 11:26 55.32031 38.22845 3017 ft 134 kts 318°
2026-04-30 11:27 55.32725 38.21717 3027 ft 138 kts 318°
2026-04-30 11:27 55.33431 38.20575 3024 ft 139 kts 318°
2026-04-30 11:27 55.34137 38.19429 3027 ft 138 kts 317°
2026-04-30 11:27 55.34853 38.18266 3029 ft 141 kts 317°
2026-04-30 11:28 55.36290 38.15929 3024 ft 139 kts 317°
2026-04-30 11:28 55.37000 38.14776 3021 ft 139 kts 318°
2026-04-30 11:28 55.37704 38.13626 3018 ft 137 kts 317°
2026-04-30 11:29 55.38401 38.12497 3021 ft 136 kts 317°
2026-04-30 11:29 55.39098 38.11361 3020 ft 137 kts 317°
2026-04-30 11:29 55.40494 38.09083 3020 ft 136 kts 317°
2026-04-30 11:30 55.41882 38.06820 3024 ft 136 kts 318°
2026-04-30 11:30 55.42582 38.05677 3023 ft 138 kts 317°
2026-04-30 11:30 55.43279 38.04536 3028 ft 138 kts 317°
2026-04-30 11:31 55.43984 38.03384 3020 ft 138 kts 317°
2026-04-30 11:31 55.44684 38.02241 3017 ft 137 kts 317°
2026-04-30 11:31 55.45376 38.01095 3019 ft 136 kts 317°
2026-04-30 11:31 55.46068 37.99948 3021 ft 137 kts 317°
2026-04-30 11:32 55.46762 37.98800 3022 ft 136 kts 317°
2026-04-30 11:32 55.47452 37.97661 3023 ft 136 kts 317°
2026-04-30 11:32 55.48143 37.96514 3022 ft 137 kts 317°
2026-04-30 11:33 55.49579 37.94337 3024 ft 137 kts 330°
2026-04-30 11:33 55.50406 37.93501 3020 ft 136 kts 329°
2026-04-30 11:33 55.51220 37.92652 3017 ft 136 kts 329°
2026-04-30 11:33 55.52032 37.91808 3020 ft 136 kts 329°
2026-04-30 11:34 55.52844 37.90963 3018 ft 135 kts 329°
2026-04-30 11:34 55.53658 37.90117 3017 ft 136 kts 329°
2026-04-30 11:34 55.54470 37.89272 3023 ft 135 kts 329°
2026-04-30 11:34 55.55287 37.88422 3023 ft 137 kts 329°
2026-04-30 11:35 55.56113 37.87563 3016 ft 138 kts 329°
2026-04-30 11:35 55.56932 37.86709 3017 ft 135 kts 329°
2026-04-30 11:35 55.57736 37.85872 3014 ft 133 kts 329°
2026-04-30 11:35 55.58528 37.85045 3016 ft 131 kts 329°
2026-04-30 11:36 55.59312 37.84228 3018 ft 130 kts 329°
2026-04-30 11:36 55.60077 37.83428 3017 ft 130 kts 329°
2026-04-30 11:36 55.60922 37.82825 3018 ft 131 kts 350°
2026-04-30 11:36 55.61834 37.82895 3015 ft 132 kts
2026-04-30 11:37 55.62743 37.83099 3016 ft 132 kts
2026-04-30 11:37 55.63655 37.83301 3016 ft 132 kts
2026-04-30 11:37 55.64574 37.83506 3024 ft 134 kts
2026-04-30 11:37 55.65499 37.83668 3020 ft 134 kts 359°
2026-04-30 11:38 55.66420 37.83706 3020 ft 133 kts 359°
2026-04-30 11:38 55.67363 37.83764 3024 ft 135 kts 359°
2026-04-30 11:38 55.68302 37.83820 3025 ft 135 kts 359°
2026-04-30 11:38 55.69232 37.83873 3019 ft 135 kts 359°
2026-04-30 11:39 55.70165 37.83928 3022 ft 134 kts 359°
2026-04-30 11:39 55.71100 37.83983 3015 ft 134 kts 359°
2026-04-30 11:39 55.72030 37.84037 3018 ft 134 kts 360°
2026-04-30 11:39 55.72958 37.84098 3014 ft 133 kts
2026-04-30 11:40 55.73889 37.84140 3016 ft 134 kts 359°
2026-04-30 11:40 55.74825 37.84197 3017 ft 135 kts 359°
2026-04-30 11:40 55.75761 37.84253 3014 ft 134 kts 359°
2026-04-30 11:40 55.76695 37.84298 3014 ft 134 kts 356°
2026-04-30 11:41 55.77620 37.84147 3014 ft 134 kts 353°
2026-04-30 11:41 55.78552 37.84002 3009 ft 134 kts 353°
2026-04-30 11:41 55.79470 37.83853 3016 ft 132 kts 353°
2026-04-30 11:41 55.80380 37.83704 3019 ft 131 kts 353°
2026-04-30 11:42 55.81293 37.83556 3015 ft 132 kts 353°
2026-04-30 11:42 55.82209 37.83364 3015 ft 132 kts 344°
2026-04-30 11:42 55.83015 37.82635 3017 ft 131 kts 320°
2026-04-30 11:42 55.83636 37.81458 3014 ft 130 kts 312°
2026-04-30 11:43 55.84263 37.80286 3014 ft 131 kts 314°
2026-04-30 11:43 55.84901 37.79104 3021 ft 133 kts 313°
2026-04-30 11:43 55.85534 37.77888 3022 ft 135 kts 313°
2026-04-30 11:43 55.86174 37.76664 3028 ft 136 kts 314°
2026-04-30 11:44 55.86819 37.75432 3021 ft 136 kts 314°
2026-04-30 11:44 55.87464 37.74203 3018 ft 135 kts 314°
2026-04-30 11:44 55.88109 37.72974 3025 ft 143 kts 313°
2026-04-30 11:44 55.88840 37.71588 3034 ft 162 kts 314°
2026-04-30 11:45 55.89741 37.70372 3035 ft 158 kts 335°
2026-04-30 11:45 55.90402 37.69969 3030 ft 146 kts 342°
2026-04-30 11:45 55.91231 37.69128 3016 ft 133 kts 315°
2026-04-30 11:45 55.91877 37.67991 2962 ft 130 kts 318°
2026-04-30 11:46 55.92552 37.66891 2864 ft 134 kts 318°
2026-04-30 11:46 55.93255 37.65774 2777 ft 137 kts 319°
2026-04-30 11:46 55.93968 37.64646 2714 ft 137 kts 319°
2026-04-30 11:46 55.94686 37.63514 2640 ft 138 kts 319°
2026-04-30 11:47 55.95407 37.62384 2545 ft 138 kts 319°
2026-04-30 11:47 55.96149 37.61215 2288 ft 147 kts 319°
2026-04-30 11:47 55.96931 37.59984 2040 ft 150 kts 319°
2026-04-30 11:47 55.97684 37.58799 2030 ft 141 kts 319°
2026-04-30 11:48 55.98400 37.57659 2028 ft 136 kts 316°
2026-04-30 11:48 55.98915 37.56274 2022 ft 133 kts 292°
2026-04-30 11:48 55.99055 37.54660 2019 ft 132 kts 269°
2026-04-30 11:48 55.98851 37.53043 2016 ft 134 kts 259°
2026-04-30 11:49 55.98621 37.51446 2022 ft 134 kts 259°
2026-04-30 11:49 55.98382 37.49838 2024 ft 134 kts 260°
2026-04-30 11:49 55.98146 37.48222 2022 ft 134 kts 259°
2026-04-30 11:49 55.97923 37.46691 1376 ft 128 kts 259°
2026-04-30 11:50 55.97689 37.45191 789 ft 119 kts 255°
2026-04-30 11:50 55.97494 37.43920 641 ft 95 kts 258°
2026-04-30 11:50 55.97365 37.42939 635 ft 53 kts 256°
2026-04-30 11:50 55.97258 37.42259 638 ft 69 kts 254°
2026-04-30 11:51 55.97127 37.41391 639 ft 48 kts 254°
2026-04-30 11:51 55.97014 37.41026 632 ft 29 kts 226°
2026-04-30 11:51 55.96886 37.40796 633 ft 23 kts 225°
2026-04-30 11:51 55.96788 37.40558 635 ft 26 kts 256°
2026-04-30 11:52 55.96734 37.40190 633 ft 27 kts 254°
2026-04-30 11:52 55.96648 37.40121 633 ft 12 kts 213°
2026-04-30 11:52 55.96610 37.39934 638 ft 20 kts 245°
2026-04-30 11:52 55.96568 37.39767 633 ft 0 kts 253°
2026-04-30 12:09 55.96561 37.39759 633 ft 4 kts 176°
2026-04-30 12:09 55.96560 37.39804 633 ft 0 kts 73°
2026-04-30 12:09 55.96564 37.39836 633 ft 8 kts 75°
2026-04-30 12:10 55.96565 37.39841 633 ft 0 kts 75°
2026-04-30 12:11 55.96639 37.39868 634 ft 5 kts 346°
2026-04-30 12:11 55.96666 37.39702 637 ft 39 kts 256°
2026-04-30 12:11 55.96554 37.38994 633 ft 51 kts 253°
2026-04-30 12:12 55.96646 37.38703 633 ft 26 kts 347°
2026-04-30 12:12 55.96741 37.38781 633 ft 29 kts 72°
2026-04-30 12:12 55.96855 37.39561 655 ft 95 kts 70°
2026-04-30 12:12 55.96983 37.40897 904 ft 119 kts 83°
2026-04-30 12:13 55.96633 37.42356 1124 ft 142 kts 144°
2026-04-30 12:13 55.95692 37.42642 1522 ft 142 kts 202°
2026-04-30 12:13 55.94911 37.41595 1954 ft 143 kts 226°
2026-04-30 12:13 55.94170 37.40380 2466 ft 146 kts 224°
2026-04-30 12:14 55.93309 37.39383 2875 ft 150 kts 207°